When you browse on this site, cookies collect data to enhance your experience and personalize the content and advertising you see.
Visit our Privacy Policy to learn more. By continuing to use the site, you agree to this use of cookies and data.
  • In Netherlands
  • List of Countries
  • For 7 days
  • Water Temperature
  • Weather Map
  • Weather Widgets
  • user-avatar
    Login

    Hourly Weather Nijlen

    Today, 4 June, Thursday

    Time Temperature Precipitation Wind Pressure Humidity
    00:00 +12°C° 0 mm 3 mps 750 mmHg 88%
    01:00 +13°C° 0 mm 3 mps 749 mmHg 84%
    02:00 +13°C° 0 mm 3 mps 749 mmHg 80%
    03:00 +13°C° 0 mm 3 mps 748 mmHg 76%
    04:00 +13°C° 0 mm 3 mps 748 mmHg 74%
    05:00 +14°C° 0 mm 4 mps 748 mmHg 72%
    06:00 +14°C° 0 mm 4 mps 748 mmHg 70%
    07:00 +14°C° 0 mm 4 mps 747 mmHg 68%
    08:00 +15°C° 0 mm 5 mps 747 mmHg 65%
    09:00 +16°C° 0 mm 5 mps 747 mmHg 62%
    10:00 +16°C° 0 mm 5 mps 747 mmHg 61%
    11:00 +16°C° 0 mm 5 mps 747 mmHg 59%
    12:00 +17°C° 0 mm 6 mps 747 mmHg 58%
    13:00 +16°C° 0.2 mm 5 mps 747 mmHg 63%
    14:00 +15°C° 0.2 mm 5 mps 747 mmHg 68%
    15:00 +14°C° 0.2 mm 4 mps 747 mmHg 73%
    16:00 +13°C° 0.3 mm 4 mps 747 mmHg 77%
    17:00 +12°C° 0.3 mm 4 mps 748 mmHg 81%
    18:00 +11°C° 0.3 mm 4 mps 748 mmHg 85%
    19:00 +11°C° 0.1 mm 4 mps 748 mmHg 86%
    20:00 +10°C° 0.1 mm 3 mps 748 mmHg 87%
    21:00 +10°C° 0.1 mm 3 mps 748 mmHg 89%
    22:00 +9°C° 0 mm 3 mps 748 mmHg 89%
    23:00 +8°C° 0 mm 3 mps 748 mmHg 89%

    Tomorrow, 5 June, Friday

    Time Temperature Precipitation Wind Pressure Humidity
    00:00 +8°C° 0 mm 3 mps 748 mmHg 90%
    01:00 +7°C° 0 mm 3 mps 748 mmHg 90%
    02:00 +7°C° 0 mm 3 mps 748 mmHg 90%
    03:00 +7°C° 0 mm 3 mps 747 mmHg 90%
    04:00 +8°C° 0.1 mm 3 mps 747 mmHg 89%
    05:00 +8°C° 0.1 mm 4 mps 746 mmHg 89%
    06:00 +9°C° 0.1 mm 5 mps 746 mmHg 89%
    07:00 +9°C° 1.1 mm 5 mps 745 mmHg 89%
    08:00 +9°C° 1.1 mm 6 mps 745 mmHg 89%
    09:00 +10°C° 1.1 mm 6 mps 744 mmHg 89%
    10:00 +11°C° 1.4 mm 7 mps 744 mmHg 81%
    11:00 +12°C° 1.4 mm 8 mps 744 mmHg 73%
    12:00 +13°C° 1.4 mm 8 mps 744 mmHg 65%
    13:00 +12°C° 0.5 mm 7 mps 744 mmHg 67%
    14:00 +12°C° 0.5 mm 7 mps 745 mmHg 70%
    15:00 +11°C° 0.5 mm 6 mps 745 mmHg 72%
    16:00 +12°C° 0.4 mm 5 mps 745 mmHg 75%
    17:00 +11°C° 0.4 mm 4 mps 745 mmHg 77%
    18:00 +11°C° 0.4 mm 3 mps 746 mmHg 79%
    19:00 +10°C° 0 mm 3 mps 746 mmHg 81%
    20:00 +9°C° 0 mm 3 mps 746 mmHg 84%
    21:00 +8°C° 0 mm 3 mps 747 mmHg 86%
    22:00 +8°C° 0 mm 3 mps 747 mmHg 86%
    23:00 +7°C° 0 mm 4 mps 747 mmHg 86%

    Day after tomorrow, 6 June, Saturday

    Time Temperature Precipitation Wind Pressure Humidity
    00:00 +7°C° 0 mm 4 mps 747 mmHg 85%
    01:00 +7°C° 0 mm 4 mps 747 mmHg 86%
    02:00 +7°C° 0 mm 4 mps 747 mmHg 86%
    03:00 +7°C° 0 mm 4 mps 747 mmHg 86%
    04:00 +7°C° 0 mm 5 mps 748 mmHg 82%
    05:00 +8°C° 0 mm 6 mps 748 mmHg 77%
    06:00 +9°C° 0 mm 6 mps 748 mmHg 73%
    07:00 +10°C° 0 mm 7 mps 748 mmHg 65%
    08:00 +12°C° 0 mm 7 mps 748 mmHg 57%
    09:00 +13°C° 0 mm 8 mps 749 mmHg 49%
    10:00 +13°C° 0 mm 8 mps 749 mmHg 48%
    11:00 +15°C° 0 mm 8 mps 749 mmHg 47%
    12:00 +15°C° 0 mm 9 mps 748 mmHg 46%
    13:00 +15°C° 0 mm 9 mps 749 mmHg 46%
    14:00 +15°C° 0 mm 9 mps 749 mmHg 47%
    15:00 +14°C° 0 mm 10 mps 749 mmHg 47%
    16:00 +13°C° 0 mm 9 mps 749 mmHg 50%
    17:00 +12°C° 0 mm 9 mps 749 mmHg 53%
    18:00 +11°C° 0 mm 8 mps 749 mmHg 56%
    19:00 +11°C° 0 mm 8 mps 750 mmHg 59%
    20:00 +11°C° 0 mm 8 mps 750 mmHg 62%
    21:00 +11°C° 0 mm 8 mps 750 mmHg 65%
    22:00 +10°C° 0 mm 7 mps 750 mmHg 68%
    23:00 +10°C° 0 mm 7 mps 750 mmHg 72%

    7 June, Sunday

    Time Temperature Precipitation Wind Pressure Humidity
    00:00 +10°C° 0 mm 7 mps 750 mmHg 75%
    01:00 +10°C° 0.1 mm 7 mps 750 mmHg 77%
    02:00 +10°C° 0.1 mm 7 mps 751 mmHg 80%
    03:00 +9°C° 0.1 mm 7 mps 751 mmHg 82%
    04:00 +10°C° 0.1 mm 7 mps 751 mmHg 81%
    05:00 +10°C° 0.1 mm 7 mps 752 mmHg 81%
    06:00 +10°C° 0.1 mm 6 mps 752 mmHg 81%
    07:00 +13°C° 0.2 mm 6 mps 752 mmHg 75%
    08:00 +14°C° 0.2 mm 6 mps 753 mmHg 69%
    09:00 +15°C° 0.2 mm 6 mps 754 mmHg 63%
    10:00 +16°C° 0.3 mm 6 mps 754 mmHg 58%
    11:00 +17°C° 0.3 mm 5 mps 754 mmHg 54%
    12:00 +19°C° 0.3 mm 5 mps 755 mmHg 49%
    13:00 +20°C° 0 mm 5 mps 755 mmHg 48%
    14:00 +20°C° 0 mm 4 mps 755 mmHg 47%
    15:00 +20°C° 0 mm 4 mps 755 mmHg 46%
    16:00 +19°C° 0 mm 4 mps 756 mmHg 51%
    17:00 +19°C° 0 mm 3 mps 756 mmHg 55%
    18:00 +18°C° 0 mm 3 mps 756 mmHg 59%
    19:00 +16°C° 0 mm 2 mps 757 mmHg 64%
    20:00 +14°C° 0 mm 1 mps 757 mmHg 70%
    21:00 +13°C° 0 mm 1 mps 758 mmHg 75%
    22:00 +12°C° 0 mm 1 mps 758 mmHg 78%
    23:00 +12°C° 0 mm 2 mps 758 mmHg 80%

    8 June, Monday

    Time Temperature Precipitation Wind Pressure Humidity
    00:00 +12°C° 0 mm 2 mps 758 mmHg 83%
    01:00 +10°C° 0 mm 2 mps 758 mmHg 84%
    02:00 +10°C° 0 mm 2 mps 758 mmHg 86%
    03:00 +10°C° 0 mm 2 mps 758 mmHg 88%
    04:00 +12°C° 0 mm 2 mps 758 mmHg 85%
    05:00 +12°C° 0 mm 3 mps 759 mmHg 83%
    06:00 +12°C° 0 mm 3 mps 759 mmHg 81%
    07:00 +14°C° 0 mm 3 mps 759 mmHg 76%
    08:00 +17°C° 0 mm 3 mps 759 mmHg 70%
    09:00 +18°C° 0 mm 3 mps 760 mmHg 65%
    10:00 +19°C° 0.6 mm 3 mps 760 mmHg 65%
    11:00 +19°C° 0.6 mm 4 mps 760 mmHg 64%
    12:00 +20°C° 0.6 mm 4 mps 760 mmHg 64%
    13:00 +19°C° 0.5 mm 5 mps 760 mmHg 64%
    14:00 +19°C° 0.5 mm 5 mps 760 mmHg 64%
    15:00 +19°C° 0.5 mm 6 mps 760 mmHg 64%
    16:00 +17°C° 0.2 mm 5 mps 760 mmHg 66%
    17:00 +16°C° 0.2 mm 5 mps 761 mmHg 68%
    18:00 +15°C° 0.2 mm 5 mps 761 mmHg 70%
    19:00 +14°C° 0 mm 4 mps 762 mmHg 74%
    20:00 +12°C° 0 mm 4 mps 762 mmHg 77%
    21:00 +11°C° 0 mm 3 mps 763 mmHg 80%
    22:00 +10°C° 0 mm 3 mps 763 mmHg 81%
    23:00 +10°C° 0 mm 3 mps 763 mmHg 82%

    9 June, Tuesday

    Time Temperature Precipitation Wind Pressure Humidity
    00:00 +10°C° 0 mm 2 mps 763 mmHg 82%
    01:00 +10°C° 0 mm 2 mps 763 mmHg 80%
    02:00 +10°C° 0 mm 2 mps 763 mmHg 78%
    03:00 +10°C° 0 mm 2 mps 763 mmHg 76%
    04:00 +12°C° 0 mm 2 mps 763 mmHg 76%
    05:00 +12°C° 0 mm 2 mps 764 mmHg 75%
    06:00 +11°C° 0 mm 3 mps 764 mmHg 75%
    07:00 +12°C° 0 mm 3 mps 764 mmHg 72%
    08:00 +12°C° 0 mm 3 mps 764 mmHg 68%
    09:00 +14°C° 0 mm 2 mps 764 mmHg 65%
    10:00 +14°C° 0 mm 3 mps 764 mmHg 61%
    11:00 +14°C° 0 mm 3 mps 764 mmHg 57%
    12:00 +15°C° 0 mm 4 mps 764 mmHg 52%
    13:00 +15°C° 0 mm 4 mps 764 mmHg 52%
    14:00 +15°C° 0 mm 4 mps 764 mmHg 52%
    15:00 +15°C° 0 mm 4 mps 764 mmHg 52%
    16:00 +15°C° 0 mm 4 mps 764 mmHg 54%
    17:00 +14°C° 0 mm 4 mps 764 mmHg 56%
    18:00 +14°C° 0 mm 4 mps 764 mmHg 59%
    19:00 +12°C° 0 mm 3 mps 764 mmHg 64%
    20:00 +12°C° 0 mm 2 mps 765 mmHg 69%
    21:00 +9°C° 0 mm 2 mps 765 mmHg 75%
    22:00 +9°C° 0 mm 2 mps 765 mmHg 76%
    23:00 +9°C° 0 mm 1 mps 764 mmHg 77%
    Show more